CZ-4C DEB, 42671

Orbit data source: Space-Track

CZ-4C DEB, 42671 is space debris in SSO originally from a launch on Thu, 26 Nov 2015 UTC launched from the Taiyaun Space Center, China (TSC). Debris objects in space refer to the collection of defunct objects orbiting the Earth. Examples of debris include non-operational satellites, rocket bodies, and fragments generated from explosions, collisions, or faulty payload assembly.

Loading next visibility...
Identifier
42671, 2015-069D
Orbit
SSO
Country
Flag of CNCN / PRC
Related business
Manufacturer
Unknown
Mission
Spacecraft
Bus & Motor
Unknown
Mass
Unknown
Launch date (UTC)
2015-11-26 (10 years ago)
Launch vehicle
Unknown
Launch site
Taiyaun Space Center, China (TSC)
Object type
Payload
Rocket body
Debris
Shape & HBR
Unknown shape, 0.1 m
Radar Cross Section
Small (<0.1 m²)

Expand to show TLE details & history
Last TLE update: 7 hours ago

TLE from 7 hours ago
0 CZ-4C DEB
1 42671U 15069D   26127.05721255  .00003992  00000-0  51444-3 0  9990
2 42671  97.7911 349.6328 0113478 144.4437 216.4404 14.77124953550422
Epoch: 2026-05-07T01:22Z
TLE epoch observation values (Epoch: 2026-05-07T01:22:23.164Z)
Latitude
-0.00001°
Longitude
104.12747°
Altitude
705.818 km
Speed
7.468 km/s
True Right ascension
23h 18m 31s
True Declination
0° 00' 00"
Sunlit
Object was in daylight at epoch
Visualization orbit readout
Latitude
Unknown
Longitude
Unknown
Altitude
Unknown
Speed
Unknown
Apparent Right ascension
Unknown
Apparent Declination
Unknown
Sunlit
N/A
Visualization observer readout
Local Sidereal Time
16:42:15
Azimuth
Unknown
Elevation
Unknown
Doppler factor
Unknown
Orbital elements
Apogee altitude
715.042 km
Perigee altitude
555.864 km
Semi-major axis
7,013.59 km
Eccentricity
0.01135
Inclination
97.7911°
RAAN
349.6328°
Arg. of periapsis
144.4437°
True anomaly
215.67674°
Mean anomaly
216.4404°
Eccentric anomaly
216.0577°
Mean motion
3.69515 °/min
Orbital period
97.42 mins
BSTAR
0.00051444
Loading maneuver chart data...
Computing Atmospheric mass density...
Loading historical data...
Loading historical data...
Loading historical data...
Loading historical data...
Loading historical data...
Loading historical data...
Loading historical data...
Other satellites on launch #69 in the year 2015 (2015-11-26 UTC)

Documentation

Showing up to 5 results
|